QPF
0.00 0.00 0.00 0.00 0.00 0.00 0.01 0.01 0.01 0.00 0.00 0.00 0.00 0.00 0.00 0.00 0.00 0.00 0.00 0.00 0.00 0.00 0.00 0.00 0.00 0.00 0.01 0.01 0.01 0.00 0.00 0.00 0.00 0.00 0.00 0.00 0.00 0.00 0.00 0.00 0.01 0.00 0.00
0.00 0.00 0.00 0.00 0.00 0.00 0.01 0.02 0.02 0.01 0.00 0.00 0.00 0.00 0.00 0.00 0.00 0.00 0.00 0.00 0.00 0.00 0.00 0.00 0.00 0.00 0.01 0.01 0.01 0.00 0.00 0.00 0.00 0.00 0.00 0.00 0.00 0.00 0.00 0.00 0.00 0.00 0.00
0.00 0.00 0.00 0.00 0.00 0.00 0.01 0.02 0.03 0.02 0.01 0.00 0.00 0.01 0.01 0.01 0.00 0.00 0.00 0.00 0.00 0.00 0.00 0.00 0.00 0.00 0.01 0.01 0.00 0.00 0.00 0.00 0.00 0.00 0.00 0.00 0.00 0.00 0.00 0.00 0.00 0.00 0.00
0.00 0.00 0.00 0.00 0.00 0.00 0.00 0.01 0.02 0.03 0.02 0.02 0.02 0.02 0.02 0.02 0.01 0.00 0.00 0.00 0.00 0.00 0.00 0.00 0.00 0.00 0.00 0.00 0.00 0.00 0.00 0.00 0.00 0.00 0.00 0.02 0.01 0.00 0.00 0.00 0.00 0.00 0.00
0.00 0.00 0.00 0.00 0.00 0.00 0.00 0.00 0.01 0.02 0.03 0.04 0.04 0.04 0.04 0.03 0.02 0.02 0.01 0.01 0.01 0.00 0.00 0.00 0.00 0.00 0.00 0.00 0.00 0.00 0.00 0.00 0.00 0.00 0.00 0.03 0.02 0.01 0.00 0.00 0.00 0.00 0.00
0.00 0.00 0.00 0.00 0.00 0.00 0.00 0.00 0.01 0.02 0.03 0.04 0.03 0.03 0.04 0.03 0.03 0.03 0.02 0.02 0.01 0.01 0.00 0.00 0.01 0.00 0.00 0.00 0.00 0.00 0.00 0.00 0.00 0.00 0.00 0.00 0.03 0.03 0.00 0.00 0.00 0.00 0.00
0.00 0.00 0.00 0.00 0.00 0.00 0.00 0.00 0.01 0.01 0.02 0.03 0.03 0.02 0.02 0.02 0.02 0.01 0.01 0.01 0.01 0.01 0.00 0.01 0.01 0.01 0.00 0.00 0.00 0.00 0.00 0.00 0.00 0.00 0.00 0.00 0.02 0.02 0.01 0.00 0.00 0.00 0.00
0.00 0.00 0.00 0.00 0.00 0.00 0.00 0.00 0.01 0.01 0.01 0.01 0.01 0.01 0.01 0.01 0.00 0.00 0.00 0.00 0.00 0.00 0.00 0.00 0.00 0.00 0.00 0.00 0.00 0.00 0.00 0.00 0.01 0.01 0.00 0.01 0.02 0.02 0.02 0.01 0.01 0.00 0.00
0.00 0.00 0.00 0.00 0.00 0.00 0.00 0.00 0.00 0.00 0.01 0.01 0.01 0.01 0.00 0.00 0.00 0.00 0.00 0.00 0.00 0.00 0.00 0.00 0.00 0.00 0.00 0.00 0.00 0.00 0.00 0.00 0.01 0.05 0.02 0.06 0.08 0.04 0.05 0.04 0.04 0.04 0.04
0.00 0.00 0.00 0.00 0.00 0.00 0.00 0.00 0.01 0.00 0.00 0.00 0.00 0.00 0.00 0.00 0.00 0.00 0.00 0.00 0.00 0.00 0.00 0.00 0.00 0.00 0.00 0.00 0.00 0.00 0.00 0.00 0.00 0.00 0.03 0.05 0.04 0.06 0.07 0.06 0.08 0.10 0.11
0.00 0.00 0.00 0.00 0.00 0.00 0.00 0.00 0.00 0.00 0.00 0.00 0.00 0.00 0.00 0.00 0.01 0.02 0.01 0.00 0.00 0.00 0.00 0.00 0.00 0.00 0.00 0.00 0.01 0.01 0.00 0.00 0.00 0.00 0.01 0.03 0.04 0.06 0.07 0.06 0.09 0.12 0.14
0.00 0.00 0.00 0.00 0.00 0.00 0.00 0.00 0.00 0.00 0.00 0.00 0.01 0.00 0.00 0.00 0.01 0.02 0.01 0.01 0.00 0.00 0.00 0.00 0.00 0.00 0.01 0.06 0.21 0.14 0.01 0.00 0.00 0.00 0.00 0.01 0.02 0.04 0.04 0.04 0.06 0.08 0.09
0.00 0.00 0.00 0.00 0.00 0.00 0.00 0.00 0.00 0.00 0.00 0.00 0.01 0.01 0.00 0.00 0.00 0.00 0.00 0.01 0.02 0.01 0.05 0.10 0.07 0.04 0.07 0.12 0.15 0.14 0.02 0.00 0.01 0.01 0.02 0.02 0.02 0.03 0.02 0.02 0.03 0.04 0.06
0.00 0.00 0.00 0.00 0.00 0.00 0.00 0.00 0.00 0.00 0.00 0.00 0.00 0.00 0.00 0.00 0.01 0.02 0.03 0.06 0.08 0.08 0.12 0.13 0.17 0.07 0.05 0.03 0.02 0.03 0.03 0.02 0.01 0.03 0.06 0.02 0.01 0.00 0.01 0.01 0.02 0.04 0.05
0.00 0.00 0.00 0.00 0.00 0.00 0.00 0.00 0.00 0.00 0.00 0.00 0.00 0.00 0.00 0.01 0.03 0.06 0.06 0.06 0.06 0.09 0.14 0.14 0.10 0.10 0.07 0.04 0.02 0.01 0.01 0.01 0.01 0.03 0.08 0.03 0.00 0.00 0.00 0.01 0.01 0.01 0.02
0.00 0.00 0.00 0.00 0.00 0.00 0.00 0.00 0.00 0.00 0.00 0.00 0.00 0.00 0.00 0.02 0.06 0.07 0.08 0.08 0.05 0.07 0.13 0.15 0.11 0.13 0.07 0.04 0.02 0.00 0.00 0.00 0.01 0.01 0.05 0.08 0.04 0.01 0.00 0.00 0.00 0.00 0.01
0.00 0.00 0.00 0.00 0.00 0.00 0.00 0.00 0.00 0.00 0.00 0.00 0.00 0.00 0.00 0.02 0.05 0.05 0.10 0.09 0.08 0.06 0.13 0.11 0.09 0.10 0.07 0.04 0.03 0.00 0.00 0.00 0.00 0.01 0.01 0.05 0.03 0.02 0.01 0.00 0.01 0.00 0.00
0.00 0.00 0.00 0.00 0.00 0.01 0.02 0.03 0.02 0.01 0.00 0.00 0.00 0.00 0.01 0.02 0.04 0.06 0.07 0.09 0.09 0.07 0.12 0.13 0.10 0.12 0.14 0.08 0.05 0.01 0.01 0.01 0.00 0.00 0.01 0.02 0.01 0.02 0.03 0.02 0.01 0.01 0.00
0.00 0.00 0.00 0.00 0.01 0.03 0.07 0.10 0.09 0.07 0.05 0.02 0.02 0.03 0.04 0.03 0.05 0.09 0.08 0.08 0.05 0.10 0.10 0.09 0.13 0.15 0.17 0.13 0.03 0.05 0.01 0.00 0.00 0.00 0.01 0.00 0.00 0.01 0.02 0.02 0.01 0.00 0.00
0.00 0.00 0.00 0.00 0.02 0.08 0.17 0.21 0.24 0.20 0.16 0.10 0.07 0.05 0.05 0.06 0.06 0.09 0.09 0.10 0.08 0.14 0.14 0.12 0.16 0.16 0.15 0.13 0.03 0.04 0.01 0.00 0.00 0.00 0.00 0.00 0.00 0.00 0.00 0.00 0.01 0.01 0.00
0.02 0.02 0.02 0.03 0.08 0.14 0.17 0.21 0.28 0.30 0.28 0.17 0.09 0.06 0.06 0.06 0.07 0.10 0.08 0.13 0.11 0.14 0.16 0.16 0.23 0.22 0.19 0.18 0.13 0.08 0.01 0.00 0.00 0.00 0.00 0.00 0.00 0.00 0.00 0.00 0.01 0.01 0.00
0.04 0.05 0.05 0.08 0.14 0.13 0.16 0.23 0.26 0.26 0.19 0.14 0.08 0.06 0.05 0.06 0.07 0.08 0.11 0.12 0.13 0.16 0.19 0.20 0.22 0.18 0.15 0.19 0.21 0.17 0.10 0.09 0.06 0.00 0.00 0.00 0.00 0.00 0.00 0.00 0.00 0.00 0.00
0.08 0.10 0.13 0.16 0.15 0.14 0.18 0.20 0.13 0.13 0.10 0.09 0.07 0.06 0.04 0.05 0.06 0.08 0.10 0.12 0.14 0.15 0.18 0.21 0.21 0.19 0.17 0.21 0.28 0.23 0.20 0.20 0.10 0.02 0.01 0.00 0.00 0.00 0.00 0.00 0.00 0.00 0.00
0.06 0.10 0.14 0.13 0.14 0.14 0.17 0.16 0.14 0.09 0.08 0.10 0.09 0.07 0.05 0.05 0.05 0.07 0.09 0.12 0.14 0.14 0.16 0.14 0.17 0.22 0.22 0.19 0.25 0.28 0.26 0.22 0.16 0.09 0.04 0.01 0.01 0.00 0.00 0.00 0.00 0.00 0.01
0.06 0.09 0.11 0.13 0.14 0.14 0.14 0.13 0.12 0.10 0.11 0.10 0.07 0.07 0.07 0.08 0.06 0.06 0.07 0.09 0.12 0.13 0.15 0.15 0.20 0.20 0.21 0.19 0.20 0.21 0.25 0.25 0.20 0.14 0.11 0.07 0.04 0.00 0.00 0.00 0.00 0.00 0.00
0.07 0.08 0.10 0.11 0.11 0.11 0.10 0.10 0.10 0.10 0.11 0.10 0.09 0.10 0.10 0.11 0.08 0.07 0.06 0.08 0.12 0.14 0.16 0.17 0.17 0.18 0.20 0.20 0.19 0.21 0.22 0.20 0.21 0.20 0.16 0.14 0.11 0.02 0.00 0.00 0.00 0.00 0.00
MSLP
1009.74 1009.84 1010.11 1010.57 1011.15 1011.77 1012.35 1012.80 1013.11 1013.27 1013.34 1013.37 1013.43 1013.56 1013.78 1014.07 1014.39 1014.69 1014.95 1015.15 1015.28 1015.38 1015.47 1015.56 1015.68 1015.82 1015.97 1016.10 1016.21 1016.28 1016.32 1016.33 1016.34 1016.37 1016.44 1016.55 1016.69 1016.85 1017.01 1017.16 1017.29 1017.38 1017.44
1009.60 1009.85 1010.26 1010.81 1011.45 1012.08 1012.62 1013.01 1013.25 1013.36 1013.40 1013.44 1013.56 1013.77 1014.08 1014.44 1014.81 1015.14 1015.38 1015.53 1015.61 1015.64 1015.67 1015.73 1015.83 1015.98 1016.15 1016.31 1016.43 1016.50 1016.52 1016.51 1016.50 1016.50 1016.54 1016.64 1016.78 1016.95 1017.13 1017.30 1017.43 1017.53 1017.59
1009.47 1009.84 1010.37 1011.02 1011.70 1012.34 1012.85 1013.20 1013.39 1013.46 1013.49 1013.56 1013.73 1014.00 1014.37 1014.78 1015.18 1015.50 1015.70 1015.80 1015.81 1015.78 1015.77 1015.81 1015.91 1016.07 1016.25 1016.43 1016.56 1016.62 1016.63 1016.60 1016.55 1016.53 1016.56 1016.64 1016.78 1016.96 1017.15 1017.34 1017.49 1017.61 1017.69
1009.35 1009.84 1010.46 1011.18 1011.91 1012.56 1013.06 1013.38 1013.54 1013.60 1013.64 1013.74 1013.95 1014.26 1014.66 1015.09 1015.48 1015.76 1015.92 1015.96 1015.91 1015.85 1015.81 1015.84 1015.95 1016.13 1016.33 1016.51 1016.64 1016.70 1016.68 1016.62 1016.55 1016.50 1016.50 1016.58 1016.72 1016.90 1017.11 1017.31 1017.50 1017.64 1017.75
1009.27 1009.83 1010.54 1011.32 1012.09 1012.75 1013.25 1013.56 1013.72 1013.79 1013.84 1013.97 1014.20 1014.54 1014.94 1015.36 1015.71 1015.94 1016.05 1016.04 1015.96 1015.88 1015.84 1015.89 1016.02 1016.21 1016.43 1016.62 1016.73 1016.76 1016.71 1016.62 1016.51 1016.43 1016.42 1016.48 1016.61 1016.80 1017.02 1017.24 1017.45 1017.63 1017.78
1009.22 1009.85 1010.61 1011.44 1012.24 1012.92 1013.42 1013.74 1013.91 1014.00 1014.08 1014.23 1014.47 1014.80 1015.19 1015.57 1015.87 1016.06 1016.12 1016.08 1015.99 1015.91 1015.90 1015.98 1016.14 1016.36 1016.58 1016.75 1016.84 1016.83 1016.74 1016.60 1016.45 1016.35 1016.31 1016.36 1016.49 1016.68 1016.90 1017.13 1017.36 1017.57 1017.76
1009.22 1009.88 1010.67 1011.53 1012.35 1013.04 1013.56 1013.90 1014.09 1014.21 1014.31 1014.47 1014.72 1015.04 1015.39 1015.71 1015.96 1016.11 1016.13 1016.09 1016.01 1015.97 1016.01 1016.13 1016.33 1016.56 1016.78 1016.92 1016.96 1016.90 1016.75 1016.56 1016.38 1016.24 1016.19 1016.22 1016.34 1016.52 1016.74 1016.97 1017.20 1017.43 1017.65
1009.26 1009.92 1010.72 1011.58 1012.40 1013.10 1013.63 1013.99 1014.21 1014.35 1014.48 1014.66 1014.90 1015.19 1015.51 1015.79 1015.99 1016.09 1016.11 1016.07 1016.03 1016.04 1016.12 1016.30 1016.52 1016.76 1016.96 1017.06 1017.05 1016.92 1016.71 1016.47 1016.25 1016.09 1016.02 1016.04 1016.15 1016.32 1016.52 1016.74 1016.96 1017.19 1017.42
1009.31 1009.96 1010.74 1011.58 1012.38 1013.06 1013.59 1013.96 1014.20 1014.37 1014.53 1014.72 1014.96 1015.24 1015.52 1015.76 1015.93 1016.01 1016.02 1016.01 1016.01 1016.07 1016.21 1016.41 1016.66 1016.89 1017.05 1017.11 1017.03 1016.84 1016.58 1016.29 1016.04 1015.87 1015.79 1015.81 1015.91 1016.07 1016.25 1016.44 1016.63 1016.83 1017.05
1009.38 1010.00 1010.74 1011.52 1012.27 1012.92 1013.42 1013.79 1014.04 1014.23 1014.41 1014.63 1014.87 1015.15 1015.41 1015.62 1015.77 1015.85 1015.87 1015.88 1015.92 1016.02 1016.19 1016.42 1016.67 1016.88 1017.00 1017.00 1016.87 1016.63 1016.32 1016.01 1015.74 1015.57 1015.50 1015.53 1015.62 1015.77 1015.92 1016.08 1016.23 1016.39 1016.57
1009.47 1010.04 1010.72 1011.43 1012.10 1012.68 1013.14 1013.47 1013.72 1013.93 1014.13 1014.37 1014.63 1014.91 1015.17 1015.39 1015.53 1015.61 1015.65 1015.68 1015.74 1015.87 1016.06 1016.29 1016.52 1016.70 1016.78 1016.73 1016.55 1016.27 1015.94 1015.62 1015.36 1015.20 1015.15 1015.19 1015.30 1015.43 1015.57 1015.70 1015.81 1015.92 1016.05
1009.58 1010.10 1010.70 1011.32 1011.89 1012.38 1012.76 1013.05 1013.28 1013.49 1013.71 1013.97 1014.26 1014.56 1014.84 1015.06 1015.22 1015.31 1015.36 1015.41 1015.49 1015.62 1015.80 1016.02 1016.22 1016.36 1016.39 1016.30 1016.10 1015.80 1015.47 1015.16 1014.92 1014.79 1014.77 1014.83 1014.95 1015.10 1015.23 1015.33 1015.40 1015.47 1015.54
1009.70 1010.17 1010.69 1011.21 1011.67 1012.06 1012.36 1012.59 1012.79 1012.98 1013.22 1013.50 1013.81 1014.13 1014.44 1014.68 1014.86 1014.97 1015.04 1015.10 1015.18 1015.30 1015.46 1015.65 1015.81 1015.91 1015.91 1015.80 1015.58 1015.29 1014.97 1014.69 1014.48 1014.37 1014.38 1014.47 1014.61 1014.76 1014.90 1014.99 1015.05 1015.08 1015.11
1009.81 1010.25 1010.70 1011.13 1011.49 1011.78 1011.99 1012.16 1012.32 1012.49 1012.72 1013.01 1013.34 1013.69 1014.01 1014.29 1014.49 1014.63 1014.72 1014.79 1014.86 1014.97 1015.10 1015.24 1015.37 1015.43 1015.41 1015.29 1015.08 1014.80 1014.51 1014.25 1014.07 1013.99 1014.01 1014.11 1014.27 1014.43 1014.58 1014.69 1014.74 1014.76 1014.77
1009.87 1010.29 1010.71 1011.06 1011.35 1011.57 1011.71 1011.83 1011.94 1012.10 1012.31 1012.59 1012.92 1013.27 1013.62 1013.91 1014.15 1014.31 1014.42 1014.50 1014.57 1014.66 1014.76 1014.87 1014.97 1015.01 1014.98 1014.86 1014.66 1014.40 1014.13 1013.89 1013.72 1013.64 1013.66 1013.75 1013.91 1014.09 1014.25 1014.38 1014.45 1014.48 1014.49
1009.82 1010.26 1010.66 1010.99 1011.25 1011.43 1011.55 1011.63 1011.72 1011.85 1012.04 1012.29 1012.60 1012.94 1013.28 1013.59 1013.84 1014.03 1014.16 1014.26 1014.34 1014.42 1014.50 1014.59 1014.66 1014.69 1014.65 1014.54 1014.36 1014.13 1013.87 1013.63 1013.44 1013.33 1013.32 1013.38 1013.52 1013.68 1013.86 1014.01 1014.12 1014.18 1014.20
1009.62 1010.10 1010.52 1010.88 1011.15 1011.35 1011.48 1011.57 1011.66 1011.76 1011.92 1012.13 1012.40 1012.70 1013.02 1013.32 1013.58 1013.79 1013.95 1014.07 1014.16 1014.25 1014.33 1014.41 1014.47 1014.49 1014.46 1014.36 1014.19 1013.97 1013.72 1013.46 1013.23 1013.06 1012.98 1012.98 1013.06 1013.20 1013.37 1013.54 1013.69 1013.78 1013.83
1009.27 1009.78 1010.25 1010.67 1011.01 1011.27 1011.47 1011.60 1011.71 1011.81 1011.93 1012.10 1012.30 1012.55 1012.82 1013.09 1013.35 1013.58 1013.77 1013.92 1014.04 1014.14 1014.23 1014.31 1014.37 1014.39 1014.37 1014.28 1014.13 1013.91 1013.64 1013.35 1013.06 1012.82 1012.64 1012.55 1012.55 1012.64 1012.78 1012.95 1013.12 1013.26 1013.33
1008.78 1009.33 1009.86 1010.35 1010.79 1011.16 1011.45 1011.67 1011.82 1011.93 1012.04 1012.14 1012.28 1012.46 1012.67 1012.91 1013.15 1013.39 1013.60 1013.79 1013.95 1014.07 1014.18 1014.26 1014.33 1014.36 1014.34 1014.27 1014.12 1013.91 1013.62 1013.29 1012.94 1012.61 1012.33 1012.13 1012.03 1012.04 1012.13 1012.29 1012.45 1012.60 1012.69
1008.23 1008.79 1009.36 1009.93 1010.48 1010.96 1011.38 1011.69 1011.92 1012.07 1012.16 1012.22 1012.30 1012.40 1012.55 1012.74 1012.97 1013.21 1013.45 1013.67 1013.86 1014.01 1014.14 1014.23 1014.30 1014.33 1014.33 1014.27 1014.13 1013.92 1013.63 1013.27 1012.86 1012.45 1012.07 1011.77 1011.57 1011.48 1011.50 1011.61 1011.75 1011.89 1011.97
1007.73 1008.26 1008.84 1009.46 1010.09 1010.69 1011.22 1011.65 1011.95 1012.15 1012.24 1012.28 1012.30 1012.35 1012.44 1012.59 1012.80 1013.04 1013.30 1013.55 1013.77 1013.94 1014.08 1014.18 1014.24 1014.28 1014.28 1014.24 1014.12 1013.93 1013.65 1013.28 1012.85 1012.38 1011.93 1011.53 1011.23 1011.05 1010.98 1011.02 1011.11 1011.21 1011.27
1007.40 1007.85 1008.39 1009.01 1009.69 1010.36 1010.99 1011.51 1011.89 1012.14 1012.26 1012.29 1012.28 1012.29 1012.34 1012.46 1012.65 1012.90 1013.17 1013.43 1013.66 1013.85 1013.98 1014.08 1014.14 1014.17 1014.18 1014.15 1014.07 1013.91 1013.66 1013.32 1012.89 1012.41 1011.91 1011.46 1011.08 1010.81 1010.66 1010.61 1010.63 1010.67 1010.68
1007.34 1007.66 1008.10 1008.67 1009.33 1010.03 1010.70 1011.29 1011.74 1012.04 1012.19 1012.23 1012.22 1012.21 1012.25 1012.35 1012.54 1012.78 1013.06 1013.32 1013.55 1013.73 1013.85 1013.93 1013.97 1013.99 1014.00 1013.99 1013.95 1013.84 1013.65 1013.36 1012.98 1012.53 1012.03 1011.55 1011.13 1010.79 1010.56 1010.44 1010.38 1010.35 1010.31
1007.60 1007.75 1008.05 1008.51 1009.09 1009.76 1010.43 1011.04 1011.53 1011.87 1012.06 1012.13 1012.14 1012.13 1012.17 1012.27 1012.45 1012.70 1012.96 1013.22 1013.43 1013.58 1013.67 1013.71 1013.72 1013.73 1013.74 1013.75 1013.74 1013.70 1013.59 1013.38 1013.08 1012.68 1012.23 1011.77 1011.33 1010.96 1010.68 1010.48 1010.36 1010.27 1010.18
1008.15 1008.12 1008.24 1008.55 1009.02 1009.60 1010.22 1010.82 1011.32 1011.68 1011.90 1012.01 1012.04 1012.06 1012.11 1012.23 1012.41 1012.64 1012.89 1013.12 1013.30 1013.41 1013.45 1013.44 1013.41 1013.39 1013.39 1013.42 1013.45 1013.47 1013.44 1013.33 1013.12 1012.81 1012.43 1012.00 1011.59 1011.21 1010.90 1010.67 1010.51 1010.38 1010.26
1008.91 1008.71 1008.65 1008.79 1009.11 1009.58 1010.12 1010.66 1011.14 1011.51 1011.76 1011.89 1011.96 1012.01 1012.09 1012.21 1012.39 1012.60 1012.82 1013.01 1013.14 1013.20 1013.19 1013.13 1013.05 1012.99 1012.98 1013.01 1013.07 1013.15 1013.19 1013.16 1013.04 1012.83 1012.52 1012.17 1011.79 1011.44 1011.13 1010.89 1010.71 1010.58 1010.46
Thickness
5833 5828 5822 5819 5816 5814 5811 5808 5806 5803 5801 5799 5796 5794 5792 5790 5787 5784 5782 5779 5777 5774 5772 5770 5768 5766 5765 5763 5762 5761 5761 5760 5758 5756 5755 5753 5751 5750 5749 5748 5748 5746 5745
5838 5829 5824 5820 5817 5814 5812 5809 5806 5803 5801 5798 5796 5793 5791 5789 5786 5784 5781 5779 5776 5774 5772 5770 5768 5766 5764 5762 5761 5759 5758 5757 5756 5755 5753 5752 5751 5749 5748 5747 5748 5745 5743
5839 5831 5825 5821 5818 5815 5812 5809 5806 5803 5800 5797 5795 5793 5790 5788 5785 5783 5780 5778 5776 5773 5771 5769 5767 5765 5763 5761 5760 5758 5756 5755 5754 5754 5753 5753 5751 5749 5747 5745 5744 5743 5742
5841 5833 5828 5822 5818 5815 5813 5810 5806 5803 5800 5797 5794 5792 5789 5787 5784 5782 5779 5777 5775 5773 5771 5768 5766 5764 5762 5761 5759 5757 5756 5754 5754 5754 5754 5754 5752 5750 5747 5744 5742 5741 5740
5844 5835 5826 5822 5819 5816 5813 5810 5807 5803 5800 5796 5793 5791 5788 5786 5783 5781 5778 5776 5774 5772 5770 5768 5766 5764 5762 5761 5759 5757 5756 5755 5754 5754 5756 5756 5755 5751 5748 5744 5742 5740 5739
5844 5834 5826 5822 5819 5816 5813 5810 5806 5803 5799 5795 5792 5790 5787 5785 5782 5780 5778 5776 5774 5772 5770 5768 5766 5765 5763 5761 5759 5758 5756 5755 5755 5756 5758 5758 5755 5752 5749 5746 5742 5740 5738
5845 5834 5826 5821 5818 5815 5812 5809 5805 5802 5798 5795 5792 5789 5786 5784 5782 5779 5777 5775 5773 5771 5770 5768 5766 5765 5763 5761 5760 5758 5757 5756 5755 5758 5760 5761 5758 5754 5750 5747 5744 5741 5739
5846 5835 5825 5820 5817 5813 5811 5808 5804 5801 5797 5793 5790 5787 5785 5782 5780 5778 5776 5774 5773 5771 5769 5767 5766 5764 5763 5762 5760 5758 5757 5756 5758 5759 5762 5763 5760 5756 5752 5749 5746 5742 5740
5847 5835 5825 5820 5816 5812 5809 5806 5803 5800 5796 5793 5789 5786 5783 5781 5779 5777 5775 5773 5772 5770 5769 5767 5766 5764 5763 5762 5760 5759 5757 5757 5757 5759 5762 5762 5759 5757 5754 5751 5747 5744 5742
5845 5837 5829 5822 5817 5812 5808 5805 5802 5799 5795 5792 5788 5785 5782 5780 5778 5777 5775 5773 5772 5770 5769 5767 5766 5764 5763 5762 5761 5760 5758 5757 5758 5760 5762 5762 5761 5758 5755 5752 5749 5746 5744
5841 5836 5832 5826 5820 5816 5811 5806 5801 5798 5794 5791 5788 5785 5782 5781 5780 5778 5776 5774 5772 5770 5769 5767 5766 5765 5764 5763 5762 5761 5759 5758 5760 5762 5765 5765 5763 5760 5756 5753 5750 5748 5745
5835 5834 5834 5829 5823 5820 5816 5807 5803 5799 5796 5792 5790 5786 5784 5783 5784 5781 5779 5775 5773 5771 5769 5768 5767 5765 5764 5765 5765 5763 5761 5762 5762 5766 5768 5767 5764 5761 5757 5754 5751 5748 5746
5835 5833 5833 5829 5824 5822 5817 5810 5808 5805 5799 5795 5793 5789 5787 5787 5786 5784 5780 5776 5773 5771 5770 5770 5768 5766 5767 5767 5768 5766 5765 5766 5767 5768 5768 5766 5763 5760 5757 5753 5751 5749 5747
5832 5830 5830 5828 5822 5821 5818 5814 5811 5808 5802 5801 5796 5791 5790 5787 5787 5786 5782 5778 5776 5773 5772 5771 5768 5769 5769 5769 5770 5769 5767 5767 5768 5768 5767 5765 5762 5759 5756 5753 5751 5749 5747
5829 5827 5826 5824 5818 5816 5814 5812 5810 5808 5805 5801 5797 5791 5790 5789 5786 5785 5781 5779 5777 5775 5772 5770 5769 5768 5768 5769 5770 5770 5770 5769 5768 5767 5766 5763 5761 5759 5756 5754 5751 5749 5747
5828 5825 5824 5820 5815 5811 5808 5805 5805 5805 5802 5801 5797 5793 5789 5788 5785 5783 5780 5777 5776 5774 5771 5769 5768 5767 5766 5767 5768 5769 5768 5768 5768 5767 5766 5764 5761 5759 5757 5754 5751 5749 5747
5828 5825 5821 5816 5813 5807 5803 5800 5801 5801 5801 5799 5797 5793 5789 5786 5784 5781 5778 5775 5774 5773 5771 5769 5767 5765 5763 5764 5765 5766 5767 5767 5767 5766 5764 5763 5762 5760 5757 5754 5751 5749 5747
5828 5823 5819 5816 5810 5804 5800 5798 5798 5798 5799 5796 5794 5791 5788 5784 5782 5779 5776 5773 5772 5770 5768 5765 5763 5760 5758 5758 5759 5763 5766 5766 5766 5765 5763 5762 5761 5760 5758 5755 5752 5750 5748
5826 5821 5815 5813 5808 5802 5798 5795 5793 5793 5792 5792 5790 5787 5785 5782 5779 5775 5772 5770 5767 5765 5762 5760 5759 5755 5752 5751 5754 5759 5762 5764 5765 5765 5763 5762 5760 5758 5757 5756 5753 5750 5749
5823 5818 5812 5808 5805 5800 5795 5790 5787 5786 5786 5785 5784 5782 5781 5778 5775 5772 5769 5766 5763 5760 5757 5754 5751 5750 5748 5747 5749 5753 5756 5761 5764 5764 5763 5762 5761 5758 5757 5756 5753 5751 5750
5817 5812 5807 5802 5799 5794 5789 5783 5779 5778 5779 5778 5778 5777 5775 5773 5770 5767 5764 5761 5758 5754 5751 5749 5746 5743 5742 5743 5741 5741 5749 5758 5762 5762 5761 5760 5760 5759 5757 5755 5753 5751 5750
5810 5805 5801 5797 5794 5789 5785 5781 5778 5775 5774 5773 5772 5771 5769 5768 5765 5762 5759 5756 5753 5750 5746 5743 5741 5737 5737 5739 5734 5730 5731 5741 5751 5758 5758 5756 5756 5757 5756 5755 5753 5751 5749
5802 5799 5796 5792 5789 5785 5781 5777 5773 5770 5768 5766 5765 5764 5764 5762 5760 5757 5754 5751 5748 5745 5741 5739 5736 5732 5730 5733 5733 5726 5721 5723 5733 5745 5752 5753 5753 5752 5752 5752 5751 5750 5748
5795 5794 5790 5787 5783 5780 5776 5771 5766 5761 5758 5759 5760 5759 5758 5756 5753 5751 5748 5745 5742 5740 5737 5735 5734 5730 5727 5725 5728 5729 5728 5727 5721 5725 5737 5746 5749 5748 5747 5747 5747 5746 5744
5785 5785 5782 5778 5775 5772 5769 5765 5761 5758 5756 5755 5754 5752 5750 5748 5746 5744 5741 5738 5735 5733 5731 5729 5727 5725 5724 5722 5722 5724 5724 5725 5724 5718 5720 5729 5736 5742 5745 5744 5743 5741 5739
5771 5771 5770 5766 5763 5762 5760 5758 5754 5751 5748 5746 5744 5742 5740 5739 5737 5736 5733 5730 5728 5726 5724 5723 5721 5720 5719 5719 5720 5720 5719 5718 5719 5718 5715 5719 5722 5732 5740 5741 5739 5736 5734